CW7229 Weather Reports


Display with metric or nautical units.
time (UTC)temp
F
wind
direction
speed
MPH
gust
MPH
rain 1hr
in
rain 24hr
in
rain mn
in
humidity
%
barometer
mb
20260503213117 66 298 3.0 8.0 0.00 0.00 0.00 24 1008.4
20260503210117 67 331 4.0 7.0 0.00 0.00 0.00 22 1008.4
20260503203117 67 314 6.0 8.0 0.00 0.00 0.00 22 1008.3
20260503200117 68 249 7.0 11.0 0.00 0.00 0.00 20 1008.3
20260503193117 68 275 4.0 6.0 0.00 0.00 0.00 20 1008.3
20260503190117 69 264 4.0 6.0 0.00 0.00 0.00 17 1007.3
20260503180136 70 195 4.0 8.0 0.00 0.00 0.00 19 1007.3
20260503173116 71 188 2.0 4.0 0.00 0.00 0.00 19 1007.3
20260503170135 72 213 3.0 8.0 0.00 0.00 0.00 16 1007.2
20260503150116 76 207 7.0 10.0 0.00 0.00 0.00 15 1007.2
20260503140116 76 214 6.0 8.0 0.00 0.00 0.00 15 1008.2
20260503120116 77 120 8.0 12.0 0.00 0.00 0.00 15 1009.2
20260503110117 73 191 7.0 11.0 0.00 0.00 0.00 19 1009.2
20260503100117 73 218 8.0 12.0 0.00 0.00 0.00 22 1009.2
20260503090117 72 243 5.0 8.0 0.00 0.00 0.00 22 1010.3
20260503080117 68 166 3.0 5.0 0.00 0.00 0.00 25 1009.3
20260503070116 61 206 0.0 0.0 0.00 0.00 0.00 37 1010.5
20260503060136 57 322 0.0 0.0 0.00 0.00 0.00 47 1010.6
20260503053116 55 152 0.0 0.0 0.00 0.00 0.00 50 1009.6
20260503050135 54 154 0.0 0.0 0.00 0.00 0.00 51 1010.7
20260503043116 53 161 0.0 0.0 0.00 0.00 0.00 50 1010.7
20260503040116 53 161 0.0 0.0 0.00 0.00 0.00 48 1010.7
20260503033116 53 203 0.0 0.0 0.00 0.00 0.00 45 1010.7
20260503030116 54 203 0.0 0.0 0.00 0.00 0.00 41 1010.7
20260503023116 56 203 0.0 0.0 0.00 0.00 0.00 40 1010.6
20260503013116 58 306 0.0 0.0 0.00 0.00 0.00 36 1011.6
20260503010116 60 205 0.0 0.0 0.00 0.00 0.00 35 1011.5
20260503003116 61 301 3.0 6.0 0.00 0.00 0.00 34 1011.5
20260502233116 58 209 0.0 0.0 0.00 0.00 0.00 30 1011.6
20260502230116 59 167 0.0 0.0 0.00 0.00 0.00 31 1011.6